sat.trackr.live / text

‹ back to catalog

2024-205C

NORAD 61896 · 2024-205C

PAYLOAD ACTIVE UNKNOWN

§ Identity

Operator
Country
PRC
Launch date
2024-11-11
Launch site
JSC
Launch vehicle
Mass (kg)
RCS (m²)

External: N2YO · Heavens-Above · Gunter

§ Orbital elements

Epoch: 2026-05-25T04:35:14.032896Z

Period
95.24 min
Inclination
97.4130°
Eccentricity
0.0053196
Mean motion
15.11976873 rev/d
Perigee alt
493.4 km
Apogee alt
566.9 km
Semi-major
6,908.3 km
B*
5.1169e-4
RAAN
216.6927°
Arg perigee
82.6344°
Mean anomaly
278.0928°
Rev number
8,475

§ Raw data

2024-205C1 61896U 24205C   26145.19113464  .00009025  00000+0  51169-3 0  99902 61896  97.4130 216.6927 0053196  82.6344 278.0928 15.11976873 84758

JSON: /api/v1/satellites/61896 · /tle

For live sub-satellite position, see the globe view (requires WebGL).

§ Visibility from observer

Set your observer location to see the next 7 days of passes ≥ 10°. The values pass through the URL so the page stays shareable.

No JS? Fill the form by hand. The geolocation button needs JavaScript.